This demonstration page uses our WeatherBlox Daily Observations layout. Learn more.

Left ArrowRight Arrow

38.20091, -84.87328

Hourly Observations for August 22, 2019

Temp ( °F °C ) Dew Point ( °F °C ) Humidity (%) Winds ( mph kmh ) Pressure ( in mb ) Visibility ( mi km ) Precip ( " mm )
12:53 am 00:53 Clear 75 23.9 72 22.2 90 90 WSW 3 6 29.95 1014 10 16 0.00 0.00
1:53 am 01:53 Clear 75 23.9 72 22.2 90 90 Calm 29.93 1014 10 16 0.00 0.00
2:53 am 02:53 Mostly Clear 74 23.3 72 22.2 94 94 SW 5 7 29.93 1013 10 16 0.00 0.00
3:53 am 03:53 Mostly Cloudy 74 23.3 72 22.2 94 94 Calm 29.93 1014 10 16 0.00 0.00
4:27 am 04:27 Mostly Cloudy with Nearby Thunderstorms 75 23.9 72 22.2 90 90 Calm 29.94 1014 10 16 0.00 0.00
4:38 am 04:38 Cloudy with Thunderstorms 75 23.9 72 22.2 90 90 W 17 28 29.99 1016 10 16 0.00 0.00
4:53 am 04:53 Cloudy with Thunderstorms 72 22.2 69 20.6 91 91 WNW 16 26 29.98 1015 10 16 0.00 0.00
5:00 am 05:00 Cloudy with Thunderstorms 71 21.7 69 20.6 94 94 WNW 14 22 29.99 1015 6 10 0.03 0.76
5:53 am 05:53 Mostly Cloudy with Light Rain 71 21.7 67 19.4 87 87 NNW 9 15 29.97 1015 10 16 0.09 2.29
6:13 am 06:13 Mostly Clear with Nearby Thunderstorms 71 21.7 67 19.4 87 87 NW 7 11 29.97 1015 10 16 0.00 0.00
6:27 am 06:27 Partly Cloudy with Thunderstorms 70 21.1 67 19.4 90 90 NW 8 13 29.98 1015 9 14 0.01 0.25
6:53 am 06:53 Cloudy with Nearby Thunderstorms 71 21.7 67 19.4 87 87 N 3 6 29.97 1015 10 16 0.05 1.27
7:03 am 07:03 Mostly Cloudy 71 21.7 67 19.4 87 87 N 3 6 29.98 1015 10 16 0.00 0.00
7:53 am 07:53 Mostly Sunny 70 21.1 68 20 93 93 S 3 6 29.96 1015 10 16 0.00 0.00
8:53 am 08:53 Sunny 71 21.7 68 20 90 90 S 5 7 29.97 1015 10 16 0.00 0.00
9:53 am 09:53 Mostly Sunny 74 23.3 69 20.6 85 85 SSW 7 11 29.99 1016 10 16 0.00 0.00
10:53 am 10:53 Sunny 76 24.4 69 20.6 79 79 SSW 9 15 30.01 1016 10 16 0.00 0.00
11:53 am 11:53 Partly Cloudy 81 27.2 71 21.7 72 72 SSW 10 17 30.00 1016 10 16 0.00 0.00
12:53 pm 12:53 Sunny 82 27.8 69 20.6 65 65 SW 10 17 29.99 1016 10 16 0.00 0.00
1:53 pm 13:53 Partly Cloudy 82 27.8 69 20.6 65 65 W 7 11 29.98 1015 10 16 0.00 0.00
2:53 pm 14:53 Partly Cloudy 84 28.9 68 20 59 59 NW 9 15 29.96 1015 10 16 0.00 0.00
3:53 pm 15:53 Sunny 85 29.4 68 20 57 57 VRB 7 11 29.94 1014 10 16 0.00 0.00
4:53 pm 16:53 Partly Cloudy 87 30.6 68 20 53 53 NNW 6 9 29.93 1013 10 16 0.00 0.00
5:53 pm 17:53 Sunny 87 30.6 68 20 53 53 NNW 8 13 29.93 1013 10 16 0.00 0.00
6:53 pm 18:53 Sunny 84 28.9 68 20 59 59 NW 6 9 29.93 1014 10 16 0.00 0.00
7:53 pm 19:53 Mostly Cloudy 81 27.2 67 19.4 62 62 Calm 29.93 1014 10 16 0.00 0.00
8:53 pm 20:53 Mostly Clear 80 26.7 69 20.6 69 69 NNE 3 6 29.92 1013 10 16 0.00 0.00
9:53 pm 21:53 Clear 79 26.1 70 21.1 74 74 Calm 29.95 1014 10 16 0.00 0.00
10:53 pm 22:53 Clear 75 23.9 70 21.1 84 84 SSE 3 6 29.96 1015 10 16 0.00 0.00
11:53 pm 23:53 Mostly Cloudy 76 24.4 70 21.1 82 82 Calm 29.96 1014 10 16 0.00 0.00

Powered by AerisWeather